Wind_Speed
14 15 15 14 15 15 15 16 16 15 16 16 17 18 18 19 21 22 22 23 24 25 25 26 26 26 27 27 27 27 26 26 26 26 26 25 25 25 25 24 24 24 24 24
13 14 14 14 13 14 15 15 16 17 17 18 19 20 20 21 22 23 24 24 25 25 26 26 27 27 27 26 26 25 25 25 24 24 24 23 23 23 23 22 22 22 21 21
13 13 14 14 14 14 15 16 17 17 18 20 21 21 22 23 23 24 25 25 25 26 26 26 26 26 26 25 24 24 24 24 23 23 23 22 21 21 20 20 19 19 18 18
12 12 13 13 14 14 15 16 17 18 19 20 21 22 22 23 24 25 25 25 24 25 25 25 25 25 24 23 23 23 23 22 22 22 20 19 19 18 17 17 17 17 16 15
11 11 11 12 12 13 14 15 16 17 19 20 21 21 22 23 24 24 24 23 24 24 23 23 23 23 22 22 22 21 21 20 19 18 17 16 15 14 14 14 14 14 14 13
8 9 10 10 11 12 13 14 15 17 18 19 20 20 21 22 22 22 22 21 21 21 22 22 21 20 20 20 19 18 18 17 16 15 14 12 11 10 10 10 10 10 10 11
7 7 8 9 10 12 12 13 15 16 17 19 20 21 21 21 21 20 20 20 20 20 20 20 19 18 17 17 16 15 14 13 12 10 9 8 7 7 6 6 7 8 8 9
5 6 6 8 9 10 12 14 15 17 18 19 20 20 20 20 20 19 19 18 18 17 17 15 14 14 13 12 11 11 10 9 8 6 5 5 5 4 4 5 5 6 7 7
3 5 6 7 9 11 13 15 16 18 19 19 19 19 19 18 18 18 17 16 16 15 14 13 12 11 10 9 8 8 7 5 4 3 3 3 3 4 4 4 4 5 5 6
3 4 5 7 9 11 13 14 16 17 17 17 18 17 16 17 17 17 15 14 13 12 11 10 9 8 7 6 5 4 3 2 2 2 3 3 3 3 3 4 5 5 5 6
4 5 6 7 9 11 13 14 14 15 15 16 16 15 14 14 14 14 13 11 9 9 8 7 7 6 5 4 2 0 1 2 2 3 4 4 5 5 5 5 5 6 6 7
5 6 7 8 10 11 13 13 14 14 15 15 15 14 13 13 12 11 10 9 7 7 6 5 5 4 4 3 2 3 3 4 5 5 6 6 6 6 6 7 7 8 8 8
6 7 8 9 10 11 12 13 13 13 14 14 13 12 12 12 11 9 8 7 7 6 5 5 5 4 4 4 5 6 5 5 5 6 7 8 8 8 8 8 9 9 10 10
7 8 9 10 10 11 12 12 12 12 12 13 12 12 12 11 10 9 8 7 7 6 6 6 6 6 6 6 7 6 7 7 7 9 10 10 9 9 9 10 10 11 12 12
8 9 9 10 11 11 11 11 11 11 12 13 13 12 12 11 10 9 8 8 8 8 8 8 8 8 9 9 9 8 8 9 9 10 11 11 11 11 11 11 11 12 13 13
8 9 9 10 10 11 11 11 11 11 12 13 13 12 12 11 11 10 9 9 8 8 9 9 9 9 9 10 10 10 10 10 11 11 12 12 12 12 12 13 13 14 14 14
8 9 9 10 10 10 11 10 10 10 11 12 13 12 12 12 11 10 9 9 8 8 9 9 9 9 9 10 11 11 12 13 14 14 13 13 13 14 15 15 15 15 15 14
8 9 9 9 9 10 10 10 9 9 10 11 12 12 12 11 11 11 10 10 9 9 9 9 10 10 10 12 12 13 13 14 14 14 14 14 14 15 16 16 16 15 15 15
8 8 9 9 9 9 10 10 9 9 10 10 11 12 11 11 11 11 10 10 10 10 11 11 11 12 12 12 13 13 13 13 13 13 13 14 14 14 15 15 15 15 14 15
7 8 8 9 9 9 9 10 9 9 9 9 10 11 11 10 10 10 10 10 10 11 11 11 11 11 12 12 12 12 12 12 12 13 13 13 14 14 14 14 14 14 14 14
6 7 7 8 8 9 9 9 9 9 9 9 10 10 11 10 10 10 10 10 10 11 11 11 10 11 11 11 11 11 12 12 12 12 13 13 13 13 13 13 13 13 13 13
5 6 7 7 8 8 9 9 9 9 8 8 8 9 9 10 10 9 9 9 9 9 9 9 10 10 10 10 10 11 11 11 11 11 11 12 12 12 12 12 11 11 11 11
5 5 6 7 7 7 8 8 8 8 8 8 8 8 8 8 8 8 8 8 7 7 8 8 8 8 8 9 9 9 9 9 9 9 10 10 9 9 9 9 9 9 9 9
6 5 5 6 6 6 7 8 7 7 7 7 7 7 7 7 7 6 6 6 6 5 5 6 6 7 7 7 7 7 7 7 7 8 8 7 7 8 7 7 8 8 7 7
6 6 6 5 5 5 6 6 6 6 6 6 6 6 6 6 5 5 5 4 4 4 4 4 4 5 5 5 5 5 6 6 6 6 6 6 5 5 5 6 6 6 6 5
7 7 7 6 6 5 5 5 5 5 5 5 5 5 4 4 4 3 3 3 2 2 2 3 3 3 3 4 4 4 4 4 4 4 4 4 4 5 5 5 5 5 5 5
9 9 8 8 7 7 7 6 6 6 6 5 5 4 4 3 3 2 2 1 1 1 0 1 2 2 2 3 4 4 4 4 4 4 4 5 5 5 6 6 6 6 6 6
Wind_Direction
238 235 240 247 252 256 262 268 272 278 282 286 289 292 291 291 290 290 290 288 288 288 289 289 288 287 285 284 282 282 282 282 282 283 283 280 276 274 272 271 270 268 268 267
237 238 244 250 255 258 265 272 277 281 284 286 289 290 291 291 292 292 291 287 287 288 289 289 288 287 285 284 283 283 284 284 284 283 282 279 277 275 272 269 266 265 265 264
240 243 251 255 259 264 269 274 281 285 287 288 290 292 293 292 293 294 291 290 289 288 289 289 288 287 284 284 285 285 285 285 284 283 282 280 277 275 270 268 265 264 263 261
242 247 252 259 263 269 275 280 284 287 289 291 294 295 294 293 295 297 295 292 291 290 290 290 290 288 286 286 286 285 285 285 285 284 282 278 275 272 266 264 263 261 260 257
250 251 257 262 266 273 280 284 289 291 291 295 297 297 297 297 298 300 300 297 294 293 292 293 292 290 288 286 285 286 286 285 284 282 279 278 275 269 263 261 259 257 255 252
259 257 262 266 273 280 286 287 292 294 294 296 299 300 302 302 302 303 303 301 299 295 294 294 292 290 289 288 288 287 287 286 283 280 277 274 271 267 261 254 250 247 248 242
263 263 266 268 276 285 290 296 297 300 301 304 306 305 305 305 304 304 304 303 299 297 296 295 293 292 291 290 289 287 286 285 284 281 274 266 262 261 252 244 239 235 231 229
261 264 268 270 282 291 297 301 304 306 307 309 309 308 308 308 306 305 307 304 301 301 302 301 300 298 296 294 290 287 285 284 278 273 267 250 241 233 227 222 214 204 206 213
277 279 284 291 295 301 304 305 309 311 312 313 313 312 313 314 314 313 311 309 306 305 307 306 306 305 300 296 292 286 283 277 265 248 230 212 208 208 204 190 178 180 188 193
323 307 305 305 307 310 311 310 311 314 318 319 320 320 319 318 319 321 321 318 314 313 313 315 315 317 314 305 298 288 278 254 226 194 184 176 172 167 164 163 163 169 170 176
339 326 318 316 318 321 322 321 321 325 327 328 330 329 327 326 327 328 328 326 324 322 322 326 330 337 339 336 342 47 114 116 126 142 154 152 153 150 150 157 161 154 150 151
342 331 327 327 328 330 331 331 331 333 334 337 339 337 335 334 335 336 338 339 337 336 340 345 350 359 9 25 63 110 118 108 109 120 134 135 136 141 140 140 142 140 136 137
352 345 341 339 340 340 339 338 338 340 343 347 349 348 345 347 348 351 351 354 358 1 8 15 19 29 43 64 91 106 107 102 101 112 122 126 129 132 131 131 132 130 127 125
354 352 349 346 346 347 347 347 348 351 353 355 358 359 0 2 5 8 10 16 19 26 40 51 56 63 68 82 91 98 102 99 99 107 113 118 125 128 127 126 127 127 126 123
357 356 354 353 354 357 359 0 1 3 4 5 6 9 13 14 16 22 30 37 44 52 60 66 70 75 81 89 94 97 98 100 103 107 110 114 116 117 119 122 124 125 124 125
0 1 1 2 4 5 7 10 13 15 15 16 17 21 25 28 31 36 43 48 55 63 70 73 74 78 87 94 95 97 99 101 105 110 112 113 114 113 116 118 120 121 121 121
4 6 7 8 9 9 11 13 19 22 23 25 27 29 33 37 39 44 49 52 62 69 71 72 76 83 91 94 97 99 101 103 106 109 110 110 111 112 114 115 116 117 117 117
5 6 8 10 12 13 13 15 21 25 27 28 30 32 37 42 45 48 54 61 65 67 72 79 85 88 94 99 100 102 104 105 105 107 107 109 111 113 114 116 116 116 115 115
8 10 12 13 15 17 18 19 21 24 26 28 29 31 35 40 45 50 56 63 69 75 81 86 89 92 97 101 103 105 107 107 107 108 108 109 110 113 115 116 117 117 117 118
8 12 13 15 17 19 21 23 24 24 25 26 30 32 35 40 46 52 60 68 74 80 84 89 93 96 100 103 106 108 108 109 110 111 112 113 114 115 117 118 119 119 120 121
4 10 12 13 15 19 21 23 24 26 29 33 35 37 39 42 47 55 66 73 78 82 86 90 95 98 100 105 108 110 110 110 112 113 115 117 118 120 121 122 122 122 122 122
354 1 5 8 12 17 21 23 24 27 32 35 37 38 40 44 50 58 69 76 80 82 86 91 96 99 100 105 109 113 115 117 117 118 119 120 121 123 124 124 123 124 125 125
336 345 353 359 5 11 15 17 20 24 29 34 38 40 42 46 51 58 66 73 80 85 90 95 98 102 105 109 112 116 119 123 125 126 126 126 127 129 129 129 129 131 132 132
316 324 334 343 350 358 5 9 14 18 20 24 30 34 38 44 51 56 62 69 78 88 95 101 107 111 113 116 120 125 127 127 129 132 134 136 138 140 141 141 142 144 146 147
301 309 315 320 327 338 350 357 2 4 6 11 16 23 30 38 45 53 60 67 76 86 97 109 119 123 126 128 130 136 141 141 140 143 147 152 155 158 161 163 164 166 167 170
291 294 298 301 305 312 323 332 336 337 341 346 354 359 5 16 27 36 45 53 65 83 100 114 126 133 142 150 155 158 159 159 161 168 177 184 188 191 192 192 191 192 196 200
283 285 286 289 293 296 301 308 312 314 317 321 324 326 328 329 333 341 345 349 355 358 204 189 184 182 183 188 193 198 199 199 201 205 209 213 214 214 214 215 216 220 223 224
Height
5776 5778 5780 5782 5783 5784 5785 5785 5785 5786 5785 5785 5783 5782 5781 5779 5777 5775 5773 5771 5769 5766 5764 5762 5760 5758 5755 5753 5751 5750 5748 5746 5745 5743 5741 5740 5739 5738 5738 5738 5738 5738 5738 5739
5773 5775 5777 5779 5780 5781 5781 5781 5781 5781 5781 5780 5778 5777 5775 5773 5772 5769 5767 5764 5762 5759 5757 5754 5752 5750 5747 5745 5743 5742 5740 5739 5737 5736 5734 5733 5732 5731 5731 5731 5731 5731 5732 5733
5771 5772 5774 5776 5777 5777 5777 5777 5777 5777 5777 5775 5773 5771 5769 5767 5765 5763 5760 5757 5755 5752 5749 5747 5744 5742 5740 5738 5736 5734 5733 5731 5730 5729 5727 5726 5725 5724 5724 5724 5725 5725 5726 5727
5768 5770 5771 5775 5773 5774 5774 5773 5773 5772 5771 5769 5768 5766 5763 5761 5759 5756 5753 5750 5747 5744 5741 5739 5736 5734 5732 5731 5729 5727 5726 5724 5723 5722 5721 5720 5719 5718 5718 5719 5719 5720 5722 5723
5765 5767 5768 5770 5770 5770 5770 5769 5769 5767 5766 5764 5762 5760 5757 5754 5752 5749 5745 5742 5739 5736 5734 5731 5729 5727 5725 5724 5722 5721 5719 5718 5717 5715 5715 5714 5713 5713 5713 5714 5715 5716 5717 5719
5763 5765 5766 5768 5767 5766 5767 5766 5765 5763 5761 5759 5757 5755 5752 5748 5745 5742 5739 5736 5733 5730 5727 5725 5723 5721 5719 5718 5716 5715 5713 5712 5711 5711 5710 5710 5709 5709 5710 5711 5712 5713 5715 5716
5761 5762 5763 5764 5764 5764 5765 5763 5761 5759 5756 5754 5752 5749 5746 5742 5739 5736 5733 5730 5727 5724 5722 5719 5717 5715 5714 5712 5711 5710 5709 5708 5707 5707 5707 5706 5707 5707 5708 5709 5710 5711 5712 5714
5760 5761 5764 5762 5761 5761 5761 5758 5756 5754 5752 5749 5746 5743 5740 5737 5733 5730 5727 5725 5722 5719 5717 5715 5712 5711 5709 5708 5707 5706 5705 5704 5704 5704 5704 5705 5705 5706 5707 5707 5708 5710 5711 5713
5760 5762 5760 5760 5759 5758 5757 5755 5752 5750 5747 5745 5741 5738 5735 5732 5729 5726 5723 5720 5717 5715 5713 5711 5709 5707 5706 5704 5703 5702 5702 5702 5702 5702 5703 5704 5704 5705 5706 5707 5708 5709 5711 5712
5759 5759 5759 5758 5757 5756 5754 5752 5749 5746 5744 5740 5737 5734 5731 5728 5725 5722 5719 5716 5714 5712 5710 5708 5706 5705 5703 5702 5701 5701 5700 5701 5701 5702 5702 5703 5704 5705 5706 5707 5709 5710 5711 5713
5760 5759 5758 5757 5756 5754 5751 5749 5746 5743 5740 5737 5734 5730 5727 5725 5722 5719 5716 5713 5711 5710 5708 5707 5705 5704 5702 5701 5700 5700 5700 5701 5701 5701 5703 5704 5705 5706 5707 5708 5710 5711 5712 5714
5760 5759 5758 5756 5754 5752 5749 5747 5744 5741 5738 5735 5731 5728 5725 5723 5720 5717 5714 5712 5710 5709 5707 5706 5705 5703 5702 5701 5701 5701 5702 5702 5702 5703 5704 5705 5706 5708 5709 5710 5711 5712 5714 5715
5760 5758 5757 5755 5753 5750 5748 5745 5742 5739 5736 5733 5730 5727 5724 5721 5719 5716 5714 5712 5710 5709 5707 5706 5705 5704 5703 5703 5703 5703 5704 5704 5704 5705 5705 5707 5708 5710 5711 5712 5713 5715 5716 5718
5760 5758 5756 5754 5752 5750 5747 5744 5741 5739 5736 5733 5730 5727 5724 5721 5719 5716 5714 5713 5711 5710 5708 5707 5707 5706 5705 5705 5706 5706 5706 5707 5707 5707 5708 5709 5710 5712 5713 5715 5716 5718 5719 5721
5760 5758 5756 5754 5751 5749 5746 5744 5741 5739 5736 5733 5730 5727 5724 5722 5719 5717 5716 5714 5713 5712 5711 5710 5709 5709 5709 5708 5709 5709 5709 5710 5710 5711 5711 5712 5714 5715 5716 5718 5719 5720 5722 5724
5760 5758 5756 5753 5751 5749 5746 5744 5742 5740 5737 5734 5731 5728 5726 5723 5721 5719 5718 5716 5715 5714 5714 5713 5713 5713 5712 5712 5712 5713 5713 5713 5714 5714 5715 5716 5717 5718 5720 5721 5722 5724 5725 5727
5760 5758 5756 5754 5752 5749 5747 5745 5743 5741 5738 5736 5733 5730 5728 5726 5724 5722 5720 5719 5718 5717 5717 5717 5716 5716 5716 5716 5716 5717 5717 5717 5718 5719 5720 5721 5722 5723 5724 5725 5727 5728 5730 5731
5760 5758 5756 5754 5752 5750 5748 5746 5744 5742 5740 5738 5735 5733 5731 5729 5727 5725 5723 5722 5721 5721 5720 5720 5720 5720 5720 5720 5721 5721 5721 5722 5723 5723 5724 5725 5726 5728 5729 5730 5731 5733 5734 5735
5760 5759 5757 5755 5753 5751 5749 5747 5746 5744 5742 5740 5738 5736 5734 5732 5730 5728 5727 5726 5725 5724 5724 5724 5724 5724 5724 5725 5725 5726 5726 5727 5728 5728 5729 5730 5731 5732 5733 5735 5736 5737 5739 5740
5761 5759 5758 5756 5754 5752 5751 5749 5747 5745 5744 5742 5740 5738 5736 5734 5733 5732 5730 5729 5729 5729 5728 5728 5728 5728 5729 5729 5730 5730 5731 5732 5732 5733 5734 5735 5736 5737 5738 5739 5740 5742 5743 5744
5761 5760 5759 5757 5755 5754 5752 5750 5749 5747 5745 5744 5742 5741 5739 5738 5736 5735 5734 5733 5733 5733 5732 5732 5733 5733 5733 5733 5734 5735 5735 5736 5737 5737 5738 5739 5740 5741 5742 5744 5745 5746 5747 5748
5761 5760 5759 5758 5756 5755 5753 5752 5750 5749 5747 5746 5745 5743 5742 5741 5739 5738 5737 5737 5737 5737 5736 5736 5737 5737 5737 5738 5738 5739 5740 5740 5741 5742 5743 5744 5745 5746 5747 5747 5748 5749 5750 5751
5761 5761 5760 5759 5757 5756 5755 5753 5752 5751 5749 5748 5747 5746 5745 5743 5742 5742 5741 5741 5740 5740 5740 5740 5740 5741 5741 5741 5742 5743 5743 5744 5745 5745 5746 5747 5748 5749 5750 5751 5752 5753 5754 5754
5761 5760 5759 5759 5758 5757 5755 5754 5753 5752 5751 5750 5749 5748 5747 5746 5745 5744 5744 5743 5743 5743 5743 5743 5743 5744 5744 5744 5745 5746 5746 5747 5748 5748 5749 5750 5751 5752 5753 5753 5754 5755 5756 5757
5759 5759 5759 5758 5757 5757 5756 5755 5754 5753 5752 5751 5750 5749 5749 5748 5747 5747 5746 5746 5745 5745 5745 5745 5746 5746 5746 5747 5747 5748 5749 5749 5750 5751 5751 5752 5753 5754 5754 5755 5756 5757 5757 5758
5758 5758 5757 5757 5757 5756 5756 5755 5754 5753 5753 5752 5751 5750 5750 5749 5749 5748 5748 5747 5747 5747 5747 5747 5747 5748 5748 5749 5749 5750 5750 5751 5751 5752 5753 5753 5754 5755 5755 5756 5757 5757 5758 5758
5756 5756 5756 5755 5755 5755 5754 5754 5753 5753 5752 5752 5751 5750 5750 5750 5749 5749 5749 5748 5748 5748 5748 5748 5748 5749 5749 5750 5750 5751 5751 5752 5752 5753 5753 5753 5754 5754 5755 5756 5756 5757 5757 5758